This is the latest recevied weather packets stored in our database for station/object ZL2VAX. If no packets are shown the sender has not sent any weather packets the latest 10 day(s).
| Time | Temp. | Humidity | Pressure | Rain* | Wind** | Luminosity | Snow |
|---|---|---|---|---|---|---|---|
| 1777647975 | 2.78° C | 95% | 1036.7 hPa | 0 mm | - | - | - |
| 1777645566 | 2.78° C | 95% | 1037 hPa | 0 mm | - | - | - |
| 1777644963 | 2.78° C | 95% | 1037 hPa | 0 mm | - | - | - |
| 1777643778 | 2.78° C | 94% | 1037.2 hPa | 0 mm | - | - | - |
| 1777641348 | 3.33° C | 94% | 1037.4 hPa | 0 mm | - | - | - |
| 1777638937 | 4.44° C | 93% | 1037.4 hPa | 0 mm | - | - | - |
| 1777635925 | 5.56° C | 89% | 1037.4 hPa | 0 mm | - | - | - |
| 1777631184 | 6.67° C | 89% | 1037.7 hPa | 0 mm | - | - | - |
| 1777628774 | 7.22° C | 88% | 1037.7 hPa | 0 mm | - | - | - |
| 1777626947 | 6.67° C | 88% | 1037.6 hPa | 0 mm | - | - | - |
| 1777625742 | 7.22° C | 88% | 1037.4 hPa | 0 mm | - | - | - |
| 1777625138 | 7.22° C | 87% | 1037.2 hPa | 0 mm | - | - | - |
| 1777623330 | 7.78° C | 86% | 1037 hPa | 0 mm | - | - | - |
| 1777614352 | 8.33° C | 86% | 1036.3 hPa | 0 mm | - | - | - |
| 1777612543 | 10.56° C | 81% | 1036.1 hPa | 0 mm | - | - | - |
| 1777605372 | 16.11° C | 60% | 1036.6 hPa | 0 mm | - | - | - |
| 1777599347 | 16.11° C | 62% | 1037.3 hPa | 0 mm | - | - | - |
| 1777593923 | 15° C | 65% | 1038.8 hPa | 0 mm | - | - | - |
| 1777593341 | 14.44° C | 69% | 1039 hPa | 0 mm | - | - | - |
| 1777590369 | 13.33° C | 72% | 1039.3 hPa | 0 mm | - | - | - |
| 1777586150 | 7.78° C | 95% | 1039.7 hPa | 0 mm | - | - | - |
| 1777584945 | 6.11° C | 96% | 1039.8 hPa | 0 mm | - | - | - |
| 1777582533 | 4.44° C | 97% | 1039.9 hPa | 0 mm | - | - | - |
| 1777579520 | 2.22° C | 96% | 1039.6 hPa | 0 mm | - | - | - |
| 1777578376 | 1.67° C | 96% | 1039.5 hPa | 0 mm | - | - | - |
* Rain latest hour (hover to see other rain measurements)
** Current wind speed in m/s (hover to see current wind gust speed)